Location: Nashville
(36.1660°N, 86.7840°W)
Time: 23:55:11
(UTC-05:00)

Vanguard 2 - Pass Details

Date: 04 July 2022
Orbit: 552 x 2934 km, 32.9° (Epoch: 10 August)

Event Time Altitude Azimuth Distance (km) Brightness Sun altitude
Rises 22:07:08 0° 275° (W) 4,279 12.0 -19.4°
Reaches altitude 10° 22:10:43 10° 270° (W) 2,931 11.0 -19.8°
Maximum altitude 22:16:58 44° 200° (SSW) 1,064 8.0 -20.6°
Enters shadow 22:17:47 41° 174° (S) 1,076 7.8 -20.7°
